Theta_e
294 294 294 294 294 295 294 294 294 294 294 293 293 293 293 293 293 292 292 292 292 292 293 293 292 294 293 293 293 293 292 292 288 291 294 297 296 296 298 301 301 302 302
294 294 294 294 294 294 293 293 293 292 293 292 292 291 291 291 292 291 290 291 291 291 291 292 292 293 292 292 292 291 291 292 290 287 291 293 294 296 298 298 300 299 300
293 293 293 293 293 293 292 292 291 290 290 290 289 288 289 289 290 291 291 291 290 291 291 291 291 291 291 291 291 290 290 291 291 290 289 291 292 293 294 296 298 299 298
292 292 292 293 292 292 290 290 291 291 290 290 289 289 289 289 289 290 290 290 290 290 291 291 291 291 290 290 290 290 291 289 289 289 287 288 290 292 289 290 291 292 293
290 291 291 291 291 290 290 291 291 291 290 289 288 288 288 288 289 289 290 290 289 290 290 291 291 290 289 290 290 290 290 288 287 286 286 287 288 288 288 290 289 293 294
290 290 290 290 290 290 290 290 289 289 289 288 288 288 287 288 288 289 290 289 289 289 288 289 290 288 289 290 290 291 291 289 287 287 286 286 287 289 290 291 292 289 287
290 290 290 290 289 290 290 289 288 288 289 288 287 287 287 287 288 289 289 289 288 289 288 288 289 290 288 289 290 290 290 291 292 290 287 288 287 289 289 288 287 288 287
287 288 289 289 288 289 287 287 287 287 286 287 287 287 287 288 288 289 289 289 289 289 289 290 289 289 289 288 288 287 287 288 289 289 290 291 292 293 291 290 288 285 285
284 285 285 285 286 287 285 286 286 285 284 286 286 286 286 287 288 288 289 289 287 286 287 288 289 289 290 290 289 287 287 287 289 288 287 286 288 289 292 288 285 286 284
284 284 284 284 285 285 285 286 285 285 285 286 285 285 286 287 288 288 289 287 285 285 286 287 287 286 289 290 288 288 286 286 285 283 282 281 280 280 282 283 286 287 284
283 283 283 283 284 285 285 286 284 285 285 285 285 286 286 286 287 288 288 287 285 284 284 285 286 289 289 290 291 288 287 285 283 281 279 278 277 276 275 276 277 282 283
282 282 282 282 284 285 284 285 284 284 284 285 285 285 286 286 286 287 288 287 287 285 284 285 286 289 290 291 289 290 287 283 281 279 277 276 275 274 274 274 274 273 275
281 282 283 284 283 284 284 284 284 284 284 285 284 285 285 286 286 287 287 286 285 285 285 285 286 285 286 285 285 284 282 281 279 277 276 275 276 277 277 276 276 275 272
283 284 284 282 284 284 284 285 285 284 284 284 284 284 285 285 285 286 286 286 285 285 285 284 284 284 283 282 281 280 280 279 278 276 276 277 279 278 277 278 276 274 272
283 284 285 285 284 284 285 286 285 286 287 285 284 285 284 284 285 286 285 284 285 285 284 284 283 282 281 280 279 279 279 278 277 277 277 277 277 276 275 275 274 273 270
283 284 285 285 285 284 284 285 286 285 286 285 286 286 286 286 285 285 285 285 284 284 283 283 281 280 281 278 277 276 277 277 277 278 277 277 275 274 273 273 273 272 270
282 283 284 281 283 283 283 283 283 286 286 286 286 286 286 285 284 284 284 285 282 281 282 281 281 280 279 277 276 277 276 276 277 277 276 275 274 273 273 272 271 271 269
279 277 281 283 283 283 283 283 283 283 284 286 285 286 286 284 283 283 283 280 279 279 280 280 280 280 278 278 278 277 276 276 275 275 274 274 274 273 272 271 270 269 268
280 281 281 282 283 282 282 282 282 283 283 284 285 282 281 283 282 281 279 280 279 278 277 278 278 278 278 277 277 277 276 274 273 272 272 271 272 271 268 267 265 265 266
280 277 278 282 282 282 282 281 282 282 282 283 283 284 283 277 281 281 279 278 278 278 277 277 276 276 276 276 275 273 272 272 271 270 270 269 269 269 266 266 266 265 264
281 282 279 281 281 282 282 282 282 282 282 283 283 284 281 280 282 282 279 278 278 278 277 276 276 275 275 274 274 273 272 271 269 268 268 267 267 266 265 265 264 263 263
280 281 281 281 281 281 281 281 282 281 282 282 283 282 282 278 279 280 279 277 275 275 275 275 275 275 274 274 273 272 270 268 267 267 265 265 265 264 264 264 263 262 262
278 279 280 281 281 279 279 280 281 281 282 282 282 281 278 280 278 279 277 275 271 271 270 271 271 269 269 271 272 272 269 267 267 267 265 265 265 264 264 263 262 262 262
276 278 278 279 280 279 279 280 280 279 281 282 282 281 279 279 277 277 276 272 270 270 269 268 269 268 267 268 269 269 267 266 266 266 265 265 263 263 263 262 261 260 260
274 274 275 276 277 278 278 279 280 281 281 281 281 280 280 278 276 275 273 270 269 268 267 267 267 266 265 265 265 265 264 263 264 264 264 264 263 262 261 261 261 260 260
273 273 274 275 275 276 277 278 278 279 280 281 281 280 279 276 275 273 270 268 267 267 266 266 265 265 264 264 264 263 264 263 262 263 264 263 261 261 261 259 260 260 259
Wind_Speed
4 4 4 4 3 3 4 6 7 9 10 10 11 11 12 12 11 10 11 11 12 11 11 11 13 13 10 9 9 9 9 10 14 10 9 10 13 12 12 11 7 7 7
5 5 5 3 3 4 5 7 8 9 10 11 11 12 13 13 12 12 12 11 11 12 12 12 14 10 12 11 9 11 10 11 11 14 10 10 13 15 14 14 12 6 9
6 5 4 1 4 5 6 7 8 9 9 9 10 11 11 12 13 12 12 11 12 12 13 13 13 13 12 10 10 11 11 9 10 10 10 9 6 8 12 10 9 8 6
5 4 2 2 3 5 5 6 8 8 10 10 10 11 10 11 13 13 11 12 12 12 13 13 13 13 14 12 10 11 10 10 9 8 7 7 8 8 3 6 6 3 5
3 3 3 3 3 5 6 7 7 8 9 10 11 11 11 10 8 11 11 12 13 13 12 13 13 14 15 13 10 8 6 7 6 6 6 6 7 5 6 3 4 6 4
5 4 4 4 5 6 6 6 7 8 9 10 10 10 11 8 15 18 16 12 12 12 12 12 11 10 10 16 16 18 14 10 8 7 9 8 10 7 7 7 7 4 3
5 5 5 5 7 6 6 6 7 8 9 10 10 10 11 11 16 18 17 11 12 12 12 10 9 6 7 8 10 13 14 16 17 11 11 9 11 8 7 8 5 5 2
4 6 6 6 7 6 6 6 7 7 9 9 9 10 10 9 15 18 17 12 11 11 11 11 9 8 8 7 8 8 7 7 7 7 10 11 12 11 9 6 4 3 3
6 7 6 6 6 5 5 6 7 7 8 8 9 10 10 10 15 16 16 10 9 10 9 9 8 9 10 13 8 7 6 6 3 7 10 13 12 11 12 4 4 4 2
6 6 4 5 5 5 5 4 5 7 8 6 7 9 9 10 14 15 14 7 9 8 9 9 10 9 13 14 7 4 6 4 1 3 4 7 10 9 16 7 1 5 3
4 3 3 4 6 6 5 5 6 6 7 6 6 7 7 9 11 15 15 8 6 7 6 8 8 11 12 12 9 5 4 4 4 3 3 4 6 7 7 8 9 5 2
3 3 4 5 5 5 7 5 5 6 8 7 6 5 4 6 9 11 14 12 11 6 6 5 7 16 9 5 2 2 9 7 3 4 5 5 5 6 7 9 11 11 10
4 5 5 4 6 5 6 6 5 7 7 6 5 6 5 4 6 12 13 12 10 7 5 7 9 9 12 11 13 10 6 4 4 5 4 5 5 5 5 6 8 11 17
5 6 3 4 5 4 5 6 6 7 7 6 5 6 6 5 5 5 5 6 6 7 6 3 4 6 9 7 5 7 5 5 5 5 4 4 5 6 7 6 8 8 12
6 6 4 4 4 5 5 6 7 8 7 5 6 5 6 6 5 11 8 5 6 5 6 3 1 1 3 4 5 5 4 5 5 4 5 5 6 6 7 7 8 9 10
5 4 5 5 5 5 6 6 13 19 14 15 16 11 5 10 13 14 15 11 12 11 3 2 0 1 3 3 3 4 5 6 5 5 5 6 6 7 8 9 9 9 11
6 6 5 5 6 6 5 6 7 5 16 18 17 16 14 12 13 13 14 11 8 9 5 2 2 2 3 3 3 3 5 5 5 5 6 6 7 8 9 9 8 9 10
6 8 7 6 6 6 6 6 6 6 6 5 12 15 13 12 11 10 11 3 4 3 2 2 3 3 4 4 5 5 5 5 6 6 6 6 7 8 8 8 8 8 8
6 7 7 7 7 6 6 6 6 6 7 6 4 5 6 10 9 7 4 4 3 3 2 2 2 3 4 5 5 6 6 5 5 6 6 6 7 7 8 8 8 8 8
7 9 9 7 6 7 7 7 7 7 7 7 6 6 3 2 4 4 2 2 2 2 2 3 3 3 4 6 6 6 6 6 6 6 6 6 7 7 8 7 7 7 8
6 7 7 7 8 7 7 8 7 6 7 6 7 6 9 6 5 5 4 4 3 3 3 4 4 4 4 5 5 6 6 6 5 6 6 6 7 8 7 8 8 8 8
7 8 8 8 7 8 8 8 8 8 8 8 6 6 13 6 5 5 5 4 3 3 2 3 4 4 5 6 6 6 7 7 7 7 7 7 7 8 7 8 8 8 8
8 9 9 9 8 8 8 8 8 8 9 8 7 6 7 7 6 6 6 5 5 4 4 3 4 4 4 3 5 6 7 7 7 7 8 8 8 8 7 8 8 8 7
8 9 11 11 9 9 9 9 8 10 10 8 8 8 7 7 7 8 6 6 6 5 5 4 4 6 6 6 5 5 6 7 7 7 9 9 8 9 8 8 8 9 8
7 9 9 11 10 10 8 9 9 9 9 9 8 8 7 7 7 7 7 6 6 7 7 5 5 6 7 8 9 10 11 11 9 10 7 9 11 11 9 8 9 8 8
8 8 8 8 9 10 11 11 11 10 10 9 9 8 8 8 7 8 8 8 7 7 7 6 7 8 9 8 10 14 14 14 11 11 9 9 10 9 8 10 11 8 8
Wind_Direction
185 189 207 235 279 308 325 321 314 312 310 307 309 308 303 300 296 289 284 280 277 274 270 267 268 269 267 265 261 259 259 259 273 278 278 288 286 287 283 271 258 268 275
194 198 212 238 344 342 328 324 324 318 318 313 307 302 298 296 294 290 285 281 277 276 274 275 275 277 272 269 267 262 259 263 269 282 286 284 279 278 278 284 287 266 270
185 201 208 287 345 339 331 329 325 312 304 299 298 293 295 296 293 290 284 279 277 274 274 274 273 274 275 273 269 272 273 268 266 272 285 286 278 275 279 268 272 286 281
188 198 226 293 330 323 319 302 307 308 310 312 309 301 291 289 292 291 282 281 278 275 274 272 271 268 270 274 268 267 265 266 267 274 282 284 278 279 251 272 275 243 262
200 217 240 256 281 288 286 306 313 314 313 313 310 307 305 297 290 298 293 288 282 280 277 274 269 265 259 264 271 271 260 261 260 265 270 279 280 269 266 247 243 287 279
208 229 223 233 256 270 287 307 317 313 314 314 313 313 311 306 304 302 298 292 291 286 286 281 272 261 256 269 261 265 262 261 259 256 274 269 275 273 278 275 271 265 271
217 227 228 230 252 266 282 303 302 307 313 318 318 319 316 310 306 308 308 300 291 287 282 278 281 265 262 272 274 271 273 262 258 271 266 264 269 263 263 267 263 246 238
214 240 230 228 242 256 276 290 305 309 311 315 314 318 316 310 310 314 316 304 304 300 295 285 273 271 258 256 257 258 265 265 262 259 257 264 257 263 247 249 263 123 89
227 234 229 225 231 239 255 286 297 301 303 308 317 324 320 314 319 320 319 316 314 313 311 293 268 268 257 256 262 262 275 269 223 14 25 13 6 357 258 174 178 169 112
225 225 220 217 228 238 243 263 280 282 280 287 312 323 313 314 323 324 322 317 317 325 324 313 294 270 263 262 261 261 271 281 302 0 4 10 8 5 32 30 98 181 133
207 216 221 232 234 237 244 242 261 269 277 285 296 324 320 322 323 326 326 324 325 319 322 326 319 288 269 250 235 222 242 129 83 64 42 24 20 21 26 30 34 40 77
191 208 228 233 238 239 239 243 244 271 285 298 301 312 319 314 318 320 330 333 329 315 319 325 336 14 30 10 336 234 122 110 91 69 49 36 34 40 44 51 53 56 47
211 235 231 229 247 240 242 245 253 261 267 284 300 310 311 313 312 310 312 327 333 314 306 343 9 13 34 49 64 70 57 71 87 82 69 56 43 50 60 61 62 66 59
250 256 232 239 253 245 251 252 251 254 258 267 281 293 306 307 297 309 313 316 310 317 314 328 20 38 64 66 54 53 51 59 77 86 78 71 65 59 57 63 76 74 67
240 261 279 259 254 265 245 242 234 237 238 246 259 272 294 300 304 313 313 323 323 312 297 297 350 54 60 60 53 53 62 71 81 84 85 83 74 69 60 63 65 71 85
244 260 261 266 271 263 269 278 237 245 244 243 251 257 268 271 302 310 309 299 312 313 272 271 61 28 99 88 80 78 70 77 82 82 82 78 77 79 78 69 71 77 88
231 254 263 254 264 264 258 262 280 251 243 242 246 253 261 273 293 306 308 300 298 310 255 229 200 159 123 101 94 98 94 83 86 84 85 88 95 90 88 84 85 88 85
236 250 261 268 265 260 252 254 250 265 275 258 236 242 248 261 284 304 319 314 290 258 261 204 185 163 142 131 126 120 113 103 89 92 92 94 96 100 96 89 88 94 94
244 248 240 250 251 250 257 251 246 250 254 259 252 233 234 253 271 274 320 259 278 253 217 168 165 151 135 133 126 115 109 103 104 107 99 96 95 102 96 92 88 79 89
248 243 247 255 257 253 249 248 246 242 249 251 247 240 191 181 230 228 215 234 212 238 192 161 143 139 139 135 127 121 118 115 111 108 106 103 100 101 100 103 98 97 86
262 262 245 256 254 257 257 249 248 246 244 242 243 226 208 206 224 224 198 208 203 189 202 160 150 144 142 128 130 126 124 122 118 117 112 104 104 101 94 94 97 98 106
269 266 261 254 256 252 251 254 250 243 241 242 243 228 215 207 212 214 203 191 193 174 175 180 155 161 158 155 148 146 140 135 132 126 116 109 108 107 108 107 108 107 108
265 265 264 260 252 256 254 250 248 241 242 240 238 223 204 209 206 203 202 178 173 178 164 175 171 159 151 147 146 151 147 149 147 140 129 125 122 121 121 119 119 116 115
266 266 265 266 265 256 251 253 245 235 238 236 233 224 213 203 199 197 188 174 170 174 175 171 187 175 156 148 144 133 124 130 130 131 127 126 123 126 122 116 114 118 113
264 268 269 270 266 262 254 245 247 242 233 220 220 220 212 202 191 190 179 176 178 172 178 171 165 174 163 154 144 137 132 127 129 130 125 122 123 123 120 116 123 120 120
261 262 263 264 260 260 259 256 250 244 242 229 215 208 201 200 193 179 174 174 178 172 168 167 165 162 158 149 143 134 133 131 129 126 126 127 125 123 120 120 123 120 117